| time (UTC) | temp F | wind direction | speed MPH | gust MPH | rain 1hr in | rain 24hr in | rain mn in | humidity % | barometer mb |
| 20260505023504 | 65 | 208 | 4.0 | 7.0 | 0.00 | 0.00 | 0.00 | 61 | 1007.5 |
| 20260505023005 | 65 | 200 | 3.0 | 7.0 | 0.00 | 0.00 | 0.00 | 61 | 1007.3 |
| 20260505022504 | 66 | 204 | 3.0 | 6.0 | 0.00 | 0.00 | 0.00 | 61 | 1007.4 |
| 20260505022004 | 66 | 212 | 3.0 | 5.0 | 0.00 | 0.00 | 0.00 | 60 | 1007.1 |
| 20260505021504 | 66 | 204 | 3.0 | 7.0 | 0.00 | 0.00 | 0.00 | 60 | 1007.2 |
| 20260505021004 | 66 | 207 | 4.0 | 7.0 | 0.00 | 0.00 | 0.00 | 60 | 1007.2 |
| 20260505020504 | 66 | 215 | 4.0 | 7.0 | 0.00 | 0.00 | 0.00 | 59 | 1007.3 |
| 20260505020004 | 66 | 216 | 4.0 | 7.0 | 0.00 | 0.00 | 0.00 | 59 | 1007.2 |
| 20260505015503 | 66 | 218 | 4.0 | 7.0 | 0.00 | 0.00 | 0.00 | 59 | 1007.1 |
| 20260505015004 | 66 | 215 | 5.0 | 7.0 | 0.00 | 0.00 | 0.00 | 59 | 1007.1 |
| 20260505014505 | 66 | 213 | 4.0 | 5.0 | 0.00 | 0.00 | 0.00 | 59 | 1007.0 |
| 20260505014004 | 67 | 221 | 3.0 | 5.0 | 0.00 | 0.00 | 0.00 | 58 | 1007.0 |
| 20260505013503 | 67 | 216 | 3.0 | 5.0 | 0.00 | 0.00 | 0.00 | 57 | 1007.1 |
| 20260505012005 | 68 | 203 | 5.0 | 8.0 | 0.00 | 0.00 | 0.00 | 57 | 1006.9 |
| 20260505011504 | 68 | 172 | 6.0 | 10.0 | 0.00 | 0.00 | 0.00 | 56 | 1007.0 |
| 20260505010504 | 68 | 213 | 5.0 | 9.0 | 0.00 | 0.00 | 0.00 | 56 | 1006.7 |
| 20260505010004 | 68 | 227 | 6.0 | 9.0 | 0.00 | 0.00 | 0.00 | 56 | 1006.9 |
| 20260505005504 | 68 | 229 | 5.0 | 8.0 | 0.00 | 0.00 | 0.00 | 55 | 1006.9 |
| 20260505005004 | 68 | 216 | 5.0 | 8.0 | 0.00 | 0.00 | 0.00 | 55 | 1007.0 |
| 20260505004505 | 68 | 208 | 4.0 | 7.0 | 0.00 | 0.00 | 0.00 | 55 | 1006.9 |
| 20260505004004 | 69 | 209 | 3.0 | 7.0 | 0.00 | 0.00 | 0.00 | 55 | 1007.0 |
| 20260505003505 | 69 | 201 | 4.0 | 9.0 | 0.00 | 0.00 | 0.00 | 54 | 1007.0 |
| 20260505003004 | 69 | 205 | 3.0 | 11.0 | 0.00 | 0.00 | 0.00 | 54 | 1007.0 |
| 20260505002504 | 69 | 220 | 3.0 | 11.0 | 0.00 | 0.00 | 0.00 | 54 | 1006.9 |
| 20260505001504 | 70 | 207 | 4.0 | 9.0 | 0.00 | 0.00 | 0.00 | 54 | 1007.1 |
| 20260505001004 | 70 | 217 | 3.0 | 10.0 | 0.00 | 0.00 | 0.00 | 53 | 1007.1 |
| 20260505000504 | 71 | 222 | 7.0 | 10.0 | 0.00 | 0.00 | 0.00 | 53 | 1006.9 |
| 20260505000004 | 71 | 205 | 8.0 | 9.0 | 0.00 | 0.00 | 0.00 | 53 | 1007.1 |
| 20260504235503 | 71 | 205 | 7.0 | 9.0 | 0.00 | 0.00 | 0.00 | 52 | 1007.1 |
| 20260504235004 | 71 | 206 | 7.0 | 10.0 | 0.00 | 0.00 | 0.00 | 52 | 1007.2 |
| 20260504234004 | 72 | 217 | 6.0 | 11.0 | 0.00 | 0.00 | 0.00 | 51 | 1007.5 |
| 20260504233004 | 72 | 226 | 6.0 | 9.0 | 0.00 | 0.00 | 0.00 | 49 | 1007.3 |
| 20260504232504 | 72 | 222 | 6.0 | 12.0 | 0.00 | 0.00 | 0.00 | 46 | 1007.2 |
| 20260504232004 | 73 | 220 | 7.0 | 12.0 | 0.00 | 0.00 | 0.00 | 47 | 1007.4 |
| 20260504231503 | 73 | 220 | 10.0 | 12.0 | 0.00 | 0.00 | 0.00 | 46 | 1007.1 |
| 20260504231004 | 73 | 234 | 9.0 | 13.0 | 0.00 | 0.00 | 0.00 | 46 | 1007.4 |
| 20260504230505 | 73 | 231 | 4.0 | 13.0 | 0.00 | 0.00 | 0.00 | 46 | 1007.7 |
| 20260504230006 | 73 | 216 | 9.0 | 15.0 | 0.00 | 0.00 | 0.00 | 46 | 1007.5 |
| 20260504225504 | 73 | 214 | 13.0 | 15.0 | 0.00 | 0.00 | 0.00 | 45 | 1007.6 |
| 20260504225004 | 74 | 230 | 9.0 | 15.0 | 0.00 | 0.00 | 0.00 | 45 | 1007.6 |
| 20260504224005 | 74 | 211 | 8.0 | 13.0 | 0.00 | 0.00 | 0.00 | 48 | 1007.4 |
| 20260504223503 | 74 | 205 | 5.0 | 12.0 | 0.00 | 0.00 | 0.00 | 48 | 1007.6 |
| 20260504222004 | 74 | 235 | 9.0 | 12.0 | 0.00 | 0.00 | 0.00 | 47 | 1007.5 |
| 20260504221004 | 74 | 225 | 10.0 | 19.0 | 0.00 | 0.00 | 0.00 | 46 | 1007.8 |
| 20260504220504 | 75 | 227 | 10.0 | 19.0 | 0.00 | 0.00 | 0.00 | 47 | 1007.6 |
| 20260504215503 | 75 | 230 | 5.0 | 13.0 | 0.00 | 0.00 | 0.00 | 49 | 1008.0 |
| 20260504215004 | 75 | 229 | 5.0 | 9.0 | 0.00 | 0.00 | 0.00 | 50 | 1007.7 |
| 20260504214505 | 75 | 232 | 5.0 | 9.0 | 0.00 | 0.00 | 0.00 | 53 | 1008.1 |
| 20260504214004 | 74 | 252 | 3.0 | 9.0 | 0.00 | 0.00 | 0.00 | 48 | 1008.0 |
| 20260504213504 | 74 | 252 | 7.0 | 12.0 | 0.00 | 0.00 | 0.00 | 47 | 1008.1 |
| 20260504213004 | 74 | 256 | 8.0 | 12.0 | 0.00 | 0.00 | 0.00 | 47 | 1008.1 |
| 20260504212004 | 75 | 263 | 7.0 | 11.0 | 0.00 | 0.00 | 0.00 | 49 | 1008.0 |
| 20260504211504 | 75 | 277 | 7.0 | 11.0 | 0.00 | 0.00 | 0.00 | 49 | 1008.4 |
| 20260504211005 | 75 | 260 | 7.0 | 11.0 | 0.00 | 0.00 | 0.00 | 48 | 1008.1 |
| 20260504210506 | 75 | 236 | 6.0 | 11.0 | 0.00 | 0.00 | 0.00 | 50 | 1008.1 |
| 20260504210005 | 75 | 238 | 8.0 | 11.0 | 0.00 | 0.00 | 0.00 | 53 | 1008.1 |
| 20260504205504 | 74 | 224 | 5.0 | 13.0 | 0.00 | 0.00 | 0.00 | 53 | 1008.2 |
| 20260504205003 | 74 | 230 | 8.0 | 13.0 | 0.00 | 0.00 | 0.00 | 50 | 1008.4 |
| 20260504204005 | 74 | 224 | 5.0 | 12.0 | 0.00 | 0.00 | 0.00 | 50 | 1008.3 |
| 20260504203505 | 74 | 227 | 7.0 | 11.0 | 0.00 | 0.00 | 0.00 | 48 | 1008.5 |
| 20260504203005 | 74 | 262 | 6.0 | 11.0 | 0.00 | 0.00 | 0.00 | 50 | 1008.6 |
| 20260504202504 | 74 | 262 | 5.0 | 11.0 | 0.00 | 0.00 | 0.00 | 51 | 1008.6 |
| 20260504201504 | 74 | 224 | 6.0 | 15.0 | 0.00 | 0.00 | 0.00 | 51 | 1008.6 |
| 20260504201005 | 74 | 216 | 7.0 | 16.0 | 0.00 | 0.00 | 0.00 | 51 | 1008.7 |
| 20260504200004 | 73 | 237 | 12.0 | 13.0 | 0.00 | 0.00 | 0.00 | 54 | 1008.9 |
| 20260504195004 | 72 | 248 | 7.0 | 10.0 | 0.00 | 0.00 | 0.00 | 53 | 1009.4 |
| 20260504194504 | 73 | 270 | 6.0 | 14.0 | 0.00 | 0.00 | 0.00 | 55 | 1009.3 |
| 20260504194003 | 73 | 282 | 7.0 | 14.0 | 0.00 | 0.00 | 0.00 | 54 | 1009.3 |
| 20260504193504 | 72 | 270 | 7.0 | 13.0 | 0.00 | 0.00 | 0.00 | 59 | 1009.4 |
| 20260504193004 | 72 | 256 | 8.0 | 15.0 | 0.00 | 0.00 | 0.00 | 58 | 1009.4 |
| 20260504192503 | 71 | 243 | 4.0 | 15.0 | 0.00 | 0.00 | 0.00 | 58 | 1009.4 |
| 20260504192004 | 71 | 232 | 12.0 | 15.0 | 0.00 | 0.00 | 0.00 | 57 | 1009.5 |
| 20260504191504 | 71 | 224 | 8.0 | 17.0 | 0.00 | 0.00 | 0.00 | 57 | 1009.4 |
| 20260504191004 | 71 | 221 | 8.0 | 17.0 | 0.00 | 0.00 | 0.00 | 58 | 1009.7 |
| 20260504190505 | 71 | 221 | 7.0 | 13.0 | 0.00 | 0.00 | 0.00 | 61 | 1009.6 |
| 20260504185504 | 70 | 229 | 7.0 | 16.0 | 0.00 | 0.00 | 0.00 | 62 | 1009.5 |
| 20260504185005 | 70 | 225 | 12.0 | 16.0 | 0.00 | 0.00 | 0.00 | 59 | 1009.5 |
| 20260504184503 | 70 | 221 | 9.0 | 15.0 | 0.00 | 0.00 | 0.00 | 61 | 1009.5 |
| 20260504184004 | 70 | 217 | 10.0 | 15.0 | 0.00 | 0.00 | 0.00 | 61 | 1009.4 |
| 20260504183005 | 70 | 222 | 9.0 | 13.0 | 0.00 | 0.00 | 0.00 | 59 | 1009.1 |
| 20260504182504 | 70 | 217 | 6.0 | 13.0 | 0.00 | 0.00 | 0.00 | 62 | 1009.4 |
| 20260504182005 | 70 | 218 | 10.0 | 13.0 | 0.00 | 0.00 | 0.00 | 60 | 1009.6 |
| 20260504181503 | 70 | 219 | 5.0 | 12.0 | 0.00 | 0.00 | 0.00 | 59 | 1009.4 |
| 20260504181004 | 69 | 214 | 9.0 | 12.0 | 0.00 | 0.00 | 0.00 | 59 | 1009.5 |
| 20260504180504 | 69 | 221 | 5.0 | 11.0 | 0.00 | 0.00 | 0.00 | 64 | 1009.7 |
| 20260504180004 | 69 | 227 | 5.0 | 11.0 | 0.00 | 0.00 | 0.00 | 61 | 1009.6 |
| 20260504175504 | 68 | 211 | 7.0 | 11.0 | 0.00 | 0.00 | 0.00 | 64 | 1009.4 |
| 20260504175005 | 67 | 204 | 5.0 | 11.0 | 0.00 | 0.00 | 0.00 | 60 | 1009.7 |
| 20260504174505 | 68 | 207 | 5.0 | 17.0 | 0.00 | 0.00 | 0.00 | 58 | 1009.4 |
| 20260504174005 | 69 | 200 | 9.0 | 17.0 | 0.00 | 0.00 | 0.00 | 57 | 1009.1 |
| 20260504173504 | 69 | 202 | 15.0 | 17.0 | 0.00 | 0.00 | 0.00 | 63 | 1009.2 |
| 20260504173004 | 69 | 213 | 5.0 | 14.0 | 0.00 | 0.00 | 0.00 | 65 | 1009.0 |
| 20260504172504 | 68 | 208 | 9.0 | 14.0 | 0.00 | 0.00 | 0.00 | 61 | 1009.1 |
| 20260504151003 | 62 | 221 | 3.0 | 10.0 | 0.00 | 0.00 | 0.00 | 69 | 1010.0 |
| 20260504141004 | 60 | 218 | 7.0 | 11.0 | 0.00 | 0.00 | 0.00 | 70 | 1010.4 |
| 20260504140505 | 59 | 216 | 9.0 | 15.0 | 0.00 | 0.00 | 0.00 | 70 | 1010.4 |
| 20260504130504 | 55 | 202 | 6.0 | 13.0 | 0.00 | 0.00 | 0.00 | 74 | 1011.2 |
| 20260504100504 | 50 | 203 | 3.0 | 6.0 | 0.00 | 0.00 | 0.00 | 68 | 1010.9 |
| 20260504082003 | 50 | 205 | 5.0 | 6.0 | 0.00 | 0.00 | 0.00 | 67 | 1011.3 |
| 20260504081004 | 50 | 216 | 2.0 | 6.0 | 0.00 | 0.00 | 0.00 | 67 | 1011.5 |
| 20260504080504 | 50 | 203 | 4.0 | 5.0 | 0.00 | 0.00 | 0.00 | 67 | 1011.5 |
| 20260504050504 | 50 | 192 | 3.0 | 4.0 | 0.00 | 0.00 | 0.00 | 67 | 1013.0 |
| 20260504050004 | 50 | 210 | 3.0 | 4.0 | 0.00 | 0.00 | 0.00 | 66 | 1013.0 |
| 20260504045504 | 50 | 203 | 2.0 | 4.0 | 0.00 | 0.00 | 0.00 | 67 | 1012.9 |
| 20260504045004 | 50 | 211 | 2.0 | 4.0 | 0.00 | 0.00 | 0.00 | 66 | 1012.9 |
| 20260504044004 | 50 | 182 | 2.0 | 4.0 | 0.00 | 0.00 | 0.00 | 66 | 1013.1 |
| 20260504043504 | 50 | 209 | 1.0 | 3.0 | 0.00 | 0.00 | 0.00 | 66 | 1013.2 |
| 20260504043004 | 50 | 210 | 2.0 | 3.0 | 0.00 | 0.00 | 0.00 | 66 | 1013.1 |
| 20260504042504 | 50 | 200 | 1.0 | 3.0 | 0.00 | 0.00 | 0.00 | 66 | 1013.0 |
| 20260504042005 | 51 | 196 | 2.0 | 3.0 | 0.00 | 0.00 | 0.00 | 66 | 1013.2 |
| 20260504041505 | 51 | 159 | 1.0 | 3.0 | 0.00 | 0.00 | 0.00 | 66 | 1013.2 |
| 20260504041005 | 51 | 130 | 1.0 | 3.0 | 0.00 | 0.00 | 0.00 | 66 | 1013.3 |
| 20260504040505 | 51 | 154 | 3.0 | 3.0 | 0.00 | 0.00 | 0.00 | 66 | 1013.4 |
| 20260504040005 | 51 | 207 | 3.0 | 3.0 | 0.00 | 0.00 | 0.00 | 66 | 1013.5 |
| 20260504035504 | 51 | 197 | 1.0 | 3.0 | 0.00 | 0.00 | 0.00 | 65 | 1013.7 |
| 20260504035004 | 51 | 192 | 1.0 | 3.0 | 0.00 | 0.00 | 0.00 | 65 | 1013.6 |
| 20260504034504 | 51 | 205 | 1.0 | 3.0 | 0.00 | 0.00 | 0.00 | 65 | 1013.3 |
| 20260504034003 | 52 | 200 | 2.0 | 3.0 | 0.00 | 0.00 | 0.00 | 65 | 1013.6 |
| 20260504033504 | 53 | 151 | 0.0 | 3.0 | 0.00 | 0.00 | 0.00 | 63 | 1013.6 |
| 20260504032004 | 53 | 210 | 1.0 | 3.0 | 0.00 | 0.00 | 0.00 | 63 | 1013.6 |
| 20260504031504 | 53 | 183 | 3.0 | 3.0 | 0.00 | 0.00 | 0.00 | 63 | 1013.7 |
| 20260504030505 | 53 | 202 | 2.0 | 3.0 | 0.00 | 0.00 | 0.00 | 63 | 1013.8 |
| 20260504030005 | 53 | 229 | 1.0 | 2.0 | 0.00 | 0.00 | 0.00 | 62 | 1014.0 |
| 20260504025004 | 53 | 203 | 0.0 | 4.0 | 0.00 | 0.00 | 0.00 | 62 | 1013.7 |
| 20260504024504 | 53 | 214 | 1.0 | 5.0 | 0.00 | 0.00 | 0.00 | 63 | 1013.6 |
| 20260504024004 | 53 | 220 | 3.0 | 5.0 | 0.00 | 0.00 | 0.00 | 64 | 1013.7 |